Total_Precipitation_Accumulation
0.23 0.24 0.26 0.24 0.25 0.26 0.28 0.38 0.53 0.37 0.10 0.03 0.05 0.06 0.09 0.13 0.17 0.17 0.17 0.20 0.27 0.34 0.38 0.41 0.46 0.57 0.88 1.55 2.51 3.18 3.06 2.40 1.69 1.33 1.35 1.61 2.04 2.47
0.28 0.30 0.31 0.31 0.31 0.30 0.32 0.32 0.40 0.48 0.29 0.05 0.06 0.07 0.09 0.12 0.17 0.18 0.19 0.21 0.23 0.28 0.33 0.36 0.41 0.50 0.65 0.96 1.54 2.46 3.05 2.99 2.39 1.81 1.60 1.71 1.93 2.39
0.30 0.34 0.35 0.35 0.35 0.33 0.34 0.35 0.34 0.40 0.39 0.10 0.04 0.07 0.13 0.16 0.18 0.18 0.19 0.18 0.16 0.20 0.27 0.34 0.39 0.47 0.59 0.77 1.04 1.62 2.49 3.00 2.98 2.50 2.10 1.92 1.89 2.04
0.44 0.43 0.44 0.45 0.47 0.45 0.45 0.41 0.36 0.35 0.40 0.26 0.07 0.06 0.13 0.20 0.26 0.26 0.22 0.19 0.16 0.16 0.21 0.29 0.36 0.42 0.53 0.67 0.84 1.12 1.71 2.44 2.91 2.87 2.47 2.11 1.93 1.98
0.72 0.71 0.68 0.65 0.66 0.64 0.62 0.55 0.44 0.36 0.35 0.34 0.18 0.10 0.14 0.23 0.34 0.35 0.30 0.23 0.17 0.18 0.21 0.25 0.31 0.36 0.44 0.55 0.69 0.86 1.12 1.54 2.16 2.70 2.86 2.55 2.17 2.01
0.82 0.86 0.91 0.94 0.94 0.89 0.87 0.72 0.57 0.48 0.42 0.42 0.32 0.21 0.18 0.24 0.42 0.48 0.43 0.34 0.25 0.20 0.23 0.24 0.29 0.36 0.38 0.40 0.46 0.60 0.85 1.23 1.66 2.21 2.73 2.85 2.52 2.21
0.58 0.62 0.73 0.89 1.02 1.10 1.14 1.00 0.86 0.80 0.69 0.61 0.50 0.39 0.31 0.36 0.50 0.56 0.61 0.55 0.46 0.35 0.28 0.23 0.24 0.26 0.27 0.31 0.39 0.50 0.67 0.90 1.20 1.63 2.19 2.69 2.74 2.52
0.38 0.38 0.43 0.59 0.71 0.83 0.98 1.04 1.10 1.17 1.10 0.93 0.76 0.61 0.45 0.42 0.50 0.68 0.75 0.81 0.74 0.53 0.45 0.37 0.32 0.30 0.26 0.25 0.30 0.39 0.55 0.76 1.00 1.28 1.64 2.12 2.54 2.65
0.21 0.22 0.23 0.32 0.45 0.50 0.59 0.70 0.85 1.02 1.16 1.16 1.09 0.83 0.59 0.49 0.60 0.76 0.82 0.89 0.81 0.69 0.71 0.69 0.56 0.44 0.36 0.34 0.39 0.41 0.48 0.63 0.81 1.02 1.26 1.58 2.01 2.41
0.16 0.14 0.13 0.18 0.33 0.44 0.54 0.54 0.56 0.71 0.97 1.15 1.25 1.07 0.82 0.71 0.84 1.01 1.11 1.10 0.97 0.91 0.94 0.97 0.76 0.61 0.55 0.50 0.48 0.43 0.44 0.50 0.64 0.80 0.99 1.20 1.50 1.92
0.13 0.14 0.12 0.12 0.28 0.44 0.47 0.42 0.38 0.48 0.62 0.87 1.07 1.10 1.03 1.01 1.09 1.30 1.40 1.43 1.33 1.13 1.10 1.15 1.00 0.79 0.73 0.73 0.66 0.54 0.46 0.46 0.52 0.64 0.78 0.94 1.14 1.53
0.11 0.11 0.18 0.24 0.33 0.39 0.38 0.39 0.43 0.40 0.39 0.45 0.53 0.63 0.69 0.72 0.90 1.15 1.28 1.39 1.40 1.43 1.26 1.19 1.23 1.15 1.16 0.96 0.77 0.56 0.46 0.47 0.51 0.56 0.64 0.74 0.90 1.11
0.15 0.15 0.17 0.25 0.30 0.32 0.35 0.38 0.48 0.43 0.35 0.40 0.44 0.47 0.53 0.59 0.66 0.87 1.11 1.28 1.40 1.42 1.27 1.27 1.45 1.31 1.25 1.14 0.93 0.71 0.49 0.43 0.45 0.55 0.63 0.70 0.78 0.85
0.19 0.12 0.13 0.19 0.24 0.29 0.32 0.36 0.39 0.39 0.38 0.38 0.36 0.35 0.42 0.53 0.61 0.72 0.89 1.04 1.14 1.22 1.15 1.24 1.53 1.40 1.23 1.05 0.95 0.89 0.68 0.53 0.45 0.47 0.52 0.74 0.85 0.89
0.29 0.24 0.19 0.20 0.22 0.18 0.19 0.26 0.28 0.29 0.36 0.37 0.32 0.29 0.34 0.46 0.53 0.62 0.70 0.81 0.92 1.01 1.10 1.16 1.36 1.46 1.38 1.14 0.87 0.83 0.85 0.78 0.59 0.52 0.52 0.56 0.63 0.72
0.30 0.25 0.21 0.18 0.14 0.11 0.10 0.12 0.15 0.21 0.30 0.33 0.29 0.25 0.27 0.35 0.45 0.57 0.70 0.76 0.87 0.92 1.04 1.16 1.32 1.56 1.55 1.16 0.96 0.86 0.77 0.86 0.76 0.56 0.53 0.56 0.57 0.53
0.35 0.33 0.25 0.18 0.17 0.13 0.10 0.08 0.09 0.14 0.21 0.25 0.26 0.29 0.30 0.34 0.41 0.51 0.70 0.82 0.91 0.89 1.03 1.25 1.38 1.53 1.60 1.48 1.28 0.97 0.77 0.70 0.70 0.60 0.56 0.63 0.70 0.63
0.41 0.38 0.23 0.16 0.15 0.14 0.13 0.11 0.10 0.12 0.15 0.22 0.26 0.29 0.33 0.38 0.42 0.48 0.64 0.82 0.88 0.85 0.95 1.18 1.41 1.64 1.78 1.77 1.52 1.13 0.89 0.76 0.75 0.69 0.59 0.62 0.76 0.79
0.29 0.24 0.16 0.14 0.14 0.14 0.14 0.14 0.12 0.10 0.13 0.20 0.25 0.27 0.32 0.37 0.43 0.49 0.58 0.71 0.79 0.83 0.91 1.07 1.35 1.61 1.71 1.73 1.79 1.46 1.11 0.91 0.89 0.90 0.77 0.60 0.61 0.71
0.17 0.19 0.17 0.14 0.15 0.16 0.16 0.15 0.14 0.13 0.14 0.18 0.20 0.23 0.30 0.38 0.42 0.45 0.52 0.65 0.75 0.82 0.90 1.00 1.25 1.48 1.55 1.43 1.51 1.62 1.55 1.20 0.99 0.98 0.91 0.77 0.72 0.85
0.14 0.15 0.15 0.16 0.16 0.16 0.16 0.16 0.16 0.16 0.15 0.17 0.18 0.20 0.25 0.34 0.37 0.38 0.45 0.55 0.68 0.78 0.83 0.88 1.06 1.31 1.49 1.45 1.35 1.40 1.61 1.64 1.24 0.97 0.88 0.89 0.90 0.95
0.15 0.16 0.15 0.16 0.18 0.19 0.19 0.19 0.18 0.16 0.14 0.15 0.16 0.16 0.20 0.27 0.32 0.34 0.40 0.49 0.57 0.65 0.73 0.79 0.94 1.27 1.55 1.57 1.41 1.33 1.51 1.73 1.75 1.41 1.06 0.83 0.75 0.74
0.21 0.21 0.19 0.18 0.17 0.18 0.20 0.19 0.18 0.15 0.13 0.13 0.14 0.15 0.17 0.21 0.24 0.29 0.35 0.42 0.50 0.58 0.68 0.80 0.93 1.17 1.46 1.57 1.51 1.39 1.39 1.51 1.62 1.56 1.48 1.17 0.74 0.50